SES-5 (EGNOS/PRN 136)

Last updated on Jan. 23, 2021, 7:32 a.m. UTC

1 38652U 12036A   21022.39563177  .00000045  00000-0  00000-0 0  9993
2 38652   0.0325  78.8578 0002068 211.8796 338.6011  1.00271032 24722
UTC
Height (km)
Latitude
Longitude
Inclination
Orbital Period
UTC large
Height (km)
Speed (km/s)
/
Latitude / Longitude
Inclination (degrees)
Orbital Period (minutes)
Azimuth
Elevation
Range (km)
Doppler Factor
iOS Compass Heading
iOS Angle

Next 30 passes for location: Hong Kong

Rise time Rise Azimuth (degrees) Set time Set Azimuth (degrees) Duration Max altitude (degrees)

No matching passes for this satellites